Time,TemperatureF,DewpointF,PressureIn,WindDirection,WindDirectionDegrees,WindSpeedMPH,WindSpeedGustMPH,Humidity,HourlyPrecipIn,Conditions,Clouds,dailyrainin,SoftwareType,DateUTC
2013-06-25 00:02:00,57.4,0.0,29.70,South,187,0.0,0.0,0,0.01,,-RA,0.01,VWS V13.01,2013-06-25 07:02:00,
2013-06-25 00:07:00,57.4,0.0,29.70,South,187,0.0,0.0,0,0.01,,-RA,0.01,VWS V13.01,2013-06-25 07:07:00,
2013-06-25 00:12:00,57.4,0.0,29.70,South,187,0.0,0.0,0,0.01,,-RA,0.01,VWS V13.01,2013-06-25 07:12:00,
2013-06-25 00:17:00,57.4,0.0,29.70,South,187,0.0,0.0,0,0.02,,-RA,0.02,VWS V13.01,2013-06-25 07:17:00,
2013-06-25 00:22:00,57.4,0.0,29.70,South,187,0.0,0.0,0,0.03,,-RA,0.04,VWS V13.01,2013-06-25 07:22:00,
2013-06-25 00:27:00,57.4,0.0,29.70,South,187,0.0,0.0,0,0.05,,-RA,0.05,VWS V13.01,2013-06-25 07:27:00,
2013-06-25 00:32:00,57.4,0.0,29.70,South,187,0.0,1.0,0,0.06,,-RA,0.06,VWS V13.01,2013-06-25 07:32:00,
2013-06-25 00:37:00,57.5,0.0,29.70,South,187,0.0,1.0,0,0.07,,-RA,0.07,VWS V13.01,2013-06-25 07:37:00,
2013-06-25 00:42:00,57.4,0.0,29.70,South,187,0.0,1.0,0,0.07,,OVC080,0.07,VWS V13.01,2013-06-25 07:42:00,
2013-06-25 00:47:00,57.4,0.0,29.70,South,187,0.0,0.0,0,0.08,,OVC080,0.08,VWS V13.01,2013-06-25 07:47:00,
2013-06-25 00:53:00,57.4,0.0,29.70,South,187,0.0,0.0,0,0.09,,OVC080,0.09,VWS V13.01,2013-06-25 07:53:00,
2013-06-25 00:58:00,57.4,0.0,29.70,South,187,0.0,0.0,0,0.09,,OVC080,0.09,VWS V13.01,2013-06-25 07:58:00,
2013-06-25 01:03:00,57.4,0.0,29.70,South,187,0.0,0.0,0,0.10,,OVC080,0.10,VWS V13.01,2013-06-25 08:03:00,
2013-06-25 01:08:00,57.4,0.0,29.70,South,187,0.0,0.0,0,0.10,,OVC080,0.10,VWS V13.01,2013-06-25 08:08:00,
2013-06-25 01:13:00,57.4,0.0,29.70,South,187,0.0,0.0,0,0.10,,OVC080,0.10,VWS V13.01,2013-06-25 08:13:00,
2013-06-25 01:18:00,57.5,0.0,29.71,South,187,0.0,0.0,0,0.08,,OVC080,0.10,VWS V13.01,2013-06-25 08:18:00,
2013-06-25 01:23:00,57.4,0.0,29.71,South,187,1.0,1.0,0,0.09,,OVC080,0.11,VWS V13.01,2013-06-25 08:23:00,
2013-06-25 01:28:00,57.5,0.0,29.70,South,187,0.0,1.0,0,0.10,,OVC080,0.12,VWS V13.01,2013-06-25 08:28:00,
2013-06-25 01:33:00,57.5,0.0,29.70,South,187,0.0,0.0,0,0.07,,OVC080,0.12,VWS V13.01,2013-06-25 08:33:00,
2013-06-25 01:38:00,57.5,0.0,29.71,South,187,0.0,0.0,0,0.07,,OVC080,0.12,VWS V13.01,2013-06-25 08:38:00,
2013-06-25 01:44:00,57.5,0.0,29.71,South,187,0.0,1.0,0,0.07,,BKN070,0.12,VWS V13.01,2013-06-25 08:44:00,
2013-06-25 01:49:00,57.5,0.0,29.71,South,187,0.0,0.0,0,0.07,,BKN070,0.14,VWS V13.01,2013-06-25 08:49:00,
2013-06-25 01:54:00,57.5,0.0,29.71,South,187,0.0,0.0,0,0.07,,BKN070,0.14,VWS V13.01,2013-06-25 08:54:00,
2013-06-25 01:59:00,57.5,0.0,29.72,SW,217,3.0,3.0,0,0.08,,BKN070,0.15,VWS V13.01,2013-06-25 08:59:00,
2013-06-25 02:04:00,57.4,0.0,29.71,SSE,148,0.0,3.0,0,0.06,,BKN070,0.15,VWS V13.01,2013-06-25 09:04:00,
2013-06-25 02:09:00,57.4,0.0,29.72,SW,232,0.0,3.0,0,0.06,,BKN070,0.15,VWS V13.01,2013-06-25 09:09:00,
2013-06-25 02:14:00,57.3,0.0,29.72,SW,232,0.0,0.0,0,0.06,,BKN070,0.15,VWS V13.01,2013-06-25 09:14:00,
2013-06-25 02:19:00,57.3,0.0,29.72,SW,232,0.0,0.0,0,0.05,,BKN070,0.15,VWS V13.01,2013-06-25 09:19:00,
2013-06-25 02:24:00,57.3,0.0,29.72,SW,232,0.0,0.0,0,0.05,,BKN070,0.15,VWS V13.01,2013-06-25 09:24:00,
2013-06-25 02:30:00,57.3,0.0,29.72,SW,232,0.0,0.0,0,0.04,,BKN070,0.16,VWS V13.01,2013-06-25 09:30:00,
2013-06-25 02:35:00,57.3,0.0,29.72,SW,233,0.0,0.0,0,0.04,,BKN070,0.16,VWS V13.01,2013-06-25 09:35:00,
2013-06-25 02:40:00,57.2,0.0,29.72,SW,233,0.0,0.0,0,0.04,,OVC060,0.16,VWS V13.01,2013-06-25 09:40:00,
2013-06-25 02:45:00,57.2,0.0,29.72,SW,232,0.0,0.0,0,0.04,,OVC060,0.16,VWS V13.01,2013-06-25 09:45:00,
2013-06-25 02:50:00,57.2,0.0,29.72,SW,232,0.0,1.0,0,0.04,,OVC060,0.16,VWS V13.01,2013-06-25 09:50:00,
2013-06-25 02:55:00,57.1,0.0,29.72,West,265,2.0,2.0,0,0.04,,OVC060,0.16,VWS V13.01,2013-06-25 09:55:00,
2013-06-25 03:00:00,57.1,0.0,29.72,West,265,0.0,0.0,0,0.01,,OVC060,0.17,VWS V13.01,2013-06-25 10:00:00,
2013-06-25 03:05:00,57.0,0.0,29.72,West,265,0.0,0.0,0,0.02,,OVC060,0.17,VWS V13.01,2013-06-25 10:05:00,
2013-06-25 03:10:00,57.0,0.0,29.72,West,265,0.0,0.0,0,0.02,,OVC060,0.17,VWS V13.01,2013-06-25 10:10:00,
2013-06-25 03:15:00,57.0,0.0,29.72,SW,236,0.0,0.0,0,0.02,,OVC060,0.17,VWS V13.01,2013-06-25 10:15:00,
2013-06-25 03:21:00,56.9,0.0,29.72,SW,236,0.0,0.0,0,0.03,,OVC060,0.18,VWS V13.01,2013-06-25 10:21:00,
2013-06-25 03:26:00,56.9,0.0,29.72,SW,236,0.0,0.0,0,0.03,,OVC060,0.18,VWS V13.01,2013-06-25 10:26:00,
2013-06-25 03:31:00,56.9,0.0,29.72,SW,236,0.0,0.0,0,0.02,,OVC060,0.18,VWS V13.01,2013-06-25 10:31:00,
2013-06-25 03:36:00,56.8,0.0,29.72,WSW,248,0.0,0.0,0,0.02,,OVC060,0.18,VWS V13.01,2013-06-25 10:36:00,
2013-06-25 03:41:00,56.8,0.0,29.72,WSW,248,0.0,0.0,0,0.02,,OVC046,0.18,VWS V13.01,2013-06-25 10:41:00,
2013-06-25 03:46:00,56.8,0.0,29.72,West,266,0.0,0.0,0,0.02,,OVC046,0.18,VWS V13.01,2013-06-25 10:46:00,
2013-06-25 03:51:00,56.7,0.0,29.72,West,266,0.0,0.0,0,0.02,,OVC046,0.18,VWS V13.01,2013-06-25 10:51:00,
2013-06-25 03:56:00,56.7,0.0,29.73,West,266,0.0,0.0,0,0.02,,OVC046,0.18,VWS V13.01,2013-06-25 10:56:00,
2013-06-25 04:01:00,56.6,0.0,29.73,NW,315,0.0,1.0,0,0.02,,OVC046,0.18,VWS V13.01,2013-06-25 11:01:00,
2013-06-25 04:06:00,56.6,0.0,29.73,NW,315,0.0,1.0,0,0.03,,OVC046,0.19,VWS V13.01,2013-06-25 11:06:00,
2013-06-25 04:11:00,56.5,0.0,29.73,NW,315,0.0,1.0,0,0.03,,OVC046,0.19,VWS V13.01,2013-06-25 11:11:00,
2013-06-25 04:16:00,56.5,0.0,29.73,NW,315,0.0,0.0,0,0.02,,OVC046,0.19,VWS V13.01,2013-06-25 11:16:00,
2013-06-25 04:22:00,56.4,0.0,29.73,SSW,213,2.0,2.0,0,0.02,,OVC046,0.19,VWS V13.01,2013-06-25 11:22:00,
2013-06-25 04:27:00,56.4,0.0,29.73,SSW,213,0.0,3.0,0,0.02,,OVC046,0.19,VWS V13.01,2013-06-25 11:27:00,
2013-06-25 04:32:00,56.4,0.0,29.73,SSW,213,0.0,0.0,0,0.01,,OVC046,0.19,VWS V13.01,2013-06-25 11:32:00,
2013-06-25 04:37:00,56.3,0.0,29.73,SSW,213,0.0,0.0,0,0.01,,OVC046,0.19,VWS V13.01,2013-06-25 11:37:00,
2013-06-25 04:42:00,56.3,0.0,29.73,SSW,213,0.0,0.0,0,0.01,,SCT080,0.19,VWS V13.01,2013-06-25 11:42:00,
2013-06-25 04:47:00,56.4,0.0,29.73,SSW,213,0.0,0.0,0,0.01,,SCT080,0.19,VWS V13.01,2013-06-25 11:47:00,
2013-06-25 04:52:00,56.3,0.0,29.73,SSW,213,0.0,0.0,0,0.01,,SCT080,0.19,VWS V13.01,2013-06-25 11:52:00,
2013-06-25 04:57:00,56.3,0.0,29.73,SSW,213,0.0,0.0,0,0.01,,SCT080,0.19,VWS V13.01,2013-06-25 11:57:00,
2013-06-25 05:02:00,56.3,0.0,29.73,SSW,213,0.0,0.0,0,0.01,,SCT080,0.19,VWS V13.01,2013-06-25 12:02:00,
2013-06-25 05:03:00,56.3,0.0,29.73,SSW,213,0.0,0.0,0,0.01,,SCT080,0.19,VWS V13.01,2013-06-25 12:03:00,
2013-06-25 05:09:00,56.3,0.0,29.73,SSW,213,0.0,0.0,0,0.01,,SCT080,0.19,VWS V13.01,2013-06-25 12:09:00,
2013-06-25 05:14:00,56.3,0.0,29.73,SSW,213,0.0,0.0,0,0.01,,SCT080,0.19,VWS V13.01,2013-06-25 12:14:00,
2013-06-25 05:19:00,56.2,0.0,29.73,SSW,213,0.0,0.0,0,0.00,,SCT080,0.19,VWS V13.01,2013-06-25 12:19:00,
2013-06-25 05:24:00,56.2,0.0,29.73,SSW,213,0.0,0.0,0,0.00,,SCT080,0.19,VWS V13.01,2013-06-25 12:24:00,
2013-06-25 05:29:00,56.2,0.0,29.73,SSW,213,0.0,0.0,0,0.00,,SCT080,0.19,VWS V13.01,2013-06-25 12:29:00,
2013-06-25 05:34:00,56.2,0.0,29.73,SSW,213,0.0,0.0,0,0.00,,SCT080,0.19,VWS V13.01,2013-06-25 12:34:00,
2013-06-25 05:40:00,56.2,0.0,29.73,SSW,213,0.0,0.0,0,0.00,,SCT080,0.19,VWS V13.01,2013-06-25 12:40:00,
2013-06-25 05:45:00,56.2,0.0,29.73,SSW,213,1.0,2.0,0,0.00,,SCT080,0.19,VWS V13.01,2013-06-25 12:45:00,
2013-06-25 05:50:00,56.2,0.0,29.73,SSW,213,0.0,2.0,0,0.00,,SCT080,0.19,VWS V13.01,2013-06-25 12:50:00,
2013-06-25 05:55:00,56.2,0.0,29.73,SSW,213,0.0,2.0,0,0.00,,BKN090,0.19,VWS V13.01,2013-06-25 12:55:00,
2013-06-25 06:00:00,56.2,0.0,29.72,SSW,213,0.0,0.0,0,0.00,,BKN090,0.19,VWS V13.01,2013-06-25 13:00:00,
2013-06-25 06:05:00,56.2,0.0,29.73,SSW,213,0.0,0.0,0,0.00,,BKN090,0.19,VWS V13.01,2013-06-25 13:05:00,
2013-06-25 06:10:00,56.2,0.0,29.73,SSW,213,0.0,0.0,0,0.00,,BKN090,0.19,VWS V13.01,2013-06-25 13:10:00,
2013-06-25 06:15:00,56.2,0.0,29.73,SSW,213,0.0,0.0,0,0.01,,BKN090,0.20,VWS V13.01,2013-06-25 13:15:00,
2013-06-25 06:20:00,56.2,0.0,29.73,SSW,213,0.0,0.0,0,0.01,,BKN090,0.20,VWS V13.01,2013-06-25 13:20:00,
2013-06-25 06:25:00,56.2,0.0,29.73,SSW,213,0.0,0.0,0,0.02,,BKN090,0.21,VWS V13.01,2013-06-25 13:25:00,
2013-06-25 06:30:00,56.2,0.0,29.72,SSW,213,0.0,0.0,0,0.04,,BKN090,0.23,VWS V13.01,2013-06-25 13:30:00,
2013-06-25 06:35:00,56.2,0.0,29.73,SSW,213,0.0,0.0,0,0.06,,BKN090,0.25,VWS V13.01,2013-06-25 13:35:00,
2013-06-25 06:40:00,56.2,0.0,29.73,SSW,213,0.0,0.0,0,0.07,,BKN090,0.26,VWS V13.01,2013-06-25 13:40:00,
2013-06-25 06:45:00,56.2,0.0,29.72,SSW,213,0.0,0.0,0,0.08,,-RA,0.27,VWS V13.01,2013-06-25 13:45:00,
2013-06-25 06:50:00,56.2,0.0,29.72,SSW,213,0.0,0.0,0,0.09,,-RA,0.28,VWS V13.01,2013-06-25 13:50:00,
2013-06-25 06:55:00,56.2,0.0,29.73,SSW,213,0.0,0.0,0,0.09,,-RA,0.29,VWS V13.01,2013-06-25 13:55:00,
2013-06-25 07:00:00,56.2,0.0,29.73,SSW,213,0.0,0.0,0,0.11,,-RA,0.30,VWS V13.01,2013-06-25 14:00:00,
2013-06-25 07:06:00,56.2,0.0,29.72,SSW,213,0.0,0.0,0,0.11,,-RA,0.31,VWS V13.01,2013-06-25 14:06:00,
2013-06-25 07:11:00,56.3,0.0,29.73,SSW,213,0.0,0.0,0,0.12,,-RA,0.31,VWS V13.01,2013-06-25 14:11:00,
2013-06-25 07:16:00,56.3,0.0,29.73,SSW,213,0.0,0.0,0,0.11,,-RA,0.31,VWS V13.01,2013-06-25 14:16:00,
2013-06-25 07:21:00,56.4,0.0,29.72,SSW,213,0.0,0.0,0,0.12,,-RA,0.32,VWS V13.01,2013-06-25 14:21:00,
2013-06-25 07:26:00,56.4,0.0,29.73,SSW,213,0.0,0.0,0,0.12,,-RA,0.32,VWS V13.01,2013-06-25 14:26:00,
2013-06-25 07:31:00,56.4,0.0,29.73,SSW,213,0.0,0.0,0,0.10,,-RA,0.32,VWS V13.01,2013-06-25 14:31:00,
2013-06-25 07:36:00,56.5,0.0,29.73,SSW,213,0.0,0.0,0,0.12,,-RA,0.34,VWS V13.01,2013-06-25 14:36:00,
2013-06-25 07:41:00,56.5,0.0,29.72,SSW,213,0.0,0.0,0,0.12,,-RA,0.34,VWS V13.01,2013-06-25 14:41:00,
2013-06-25 07:46:00,56.6,0.0,29.73,SSW,213,0.0,0.0,0,0.07,,-RA,0.34,VWS V13.01,2013-06-25 14:46:00,
2013-06-25 07:52:00,56.7,0.0,29.73,SSW,213,0.0,0.0,0,0.08,,-RA,0.35,VWS V13.01,2013-06-25 14:52:00,
2013-06-25 07:57:00,56.8,0.0,29.73,SSW,213,0.0,0.0,0,0.08,,-RA,0.35,VWS V13.01,2013-06-25 14:57:00,
2013-06-25 08:02:00,56.8,0.0,29.73,SSW,213,0.0,0.0,0,0.05,,-RA,0.35,VWS V13.01,2013-06-25 15:02:00,
2013-06-25 08:07:00,56.9,0.0,29.73,SSW,213,0.0,0.0,0,0.05,,-RA,0.35,VWS V13.01,2013-06-25 15:07:00,
2013-06-25 08:12:00,56.9,0.0,29.73,SSW,213,0.0,0.0,0,0.05,,-RA,0.35,VWS V13.01,2013-06-25 15:12:00,
2013-06-25 08:17:00,57.0,0.0,29.73,SSW,213,0.0,0.0,0,0.04,,-RA,0.35,VWS V13.01,2013-06-25 15:17:00,
2013-06-25 08:22:00,57.1,0.0,29.73,SSW,213,0.0,0.0,0,0.04,,-RA,0.35,VWS V13.01,2013-06-25 15:22:00,
2013-06-25 08:27:00,57.1,0.0,29.74,SSW,213,0.0,0.0,0,0.04,,-RA,0.35,VWS V13.01,2013-06-25 15:27:00,
2013-06-25 08:32:00,57.2,0.0,29.74,SSW,213,0.0,1.0,0,0.03,,-RA,0.35,VWS V13.01,2013-06-25 15:32:00,
2013-06-25 08:37:00,57.3,0.0,29.74,SSW,213,0.0,1.0,0,0.03,,-RA,0.36,VWS V13.01,2013-06-25 15:37:00,
2013-06-25 08:42:00,57.3,0.0,29.74,SSW,213,0.0,1.0,0,0.04,,RA,0.36,VWS V13.01,2013-06-25 15:42:00,
2013-06-25 08:47:00,57.2,0.0,29.74,SSW,213,0.0,1.0,0,0.02,,RA,0.36,VWS V13.01,2013-06-25 15:47:00,
2013-06-25 08:52:00,57.2,0.0,29.74,WSW,238,1.0,2.0,0,0.02,,RA,0.36,VWS V13.01,2013-06-25 15:52:00,
2013-06-25 08:57:00,57.3,0.0,29.74,WSW,238,0.0,2.0,0,0.02,,RA,0.36,VWS V13.01,2013-06-25 15:57:00,
2013-06-25 09:02:00,57.4,0.0,29.74,WSW,238,0.0,0.0,0,0.01,,RA,0.36,VWS V13.01,2013-06-25 16:02:00,
2013-06-25 09:07:00,57.5,0.0,29.74,WSW,238,0.0,1.0,0,0.01,,RA,0.36,VWS V13.01,2013-06-25 16:07:00,
2013-06-25 09:12:00,57.5,0.0,29.74,WSW,238,0.0,1.0,0,0.01,,RA,0.36,VWS V13.01,2013-06-25 16:12:00,
2013-06-25 09:17:00,57.6,0.0,29.74,WSW,238,0.0,0.0,0,0.01,,RA,0.36,VWS V13.01,2013-06-25 16:17:00,
2013-06-25 09:22:00,57.7,0.0,29.74,WSW,238,0.0,0.0,0,0.01,,RA,0.36,VWS V13.01,2013-06-25 16:22:00,
2013-06-25 09:28:00,57.8,0.0,29.74,WSW,238,0.0,0.0,0,0.01,,RA,0.36,VWS V13.01,2013-06-25 16:28:00,
2013-06-25 09:33:00,57.8,0.0,29.74,WSW,238,0.0,0.0,0,0.01,,RA,0.36,VWS V13.01,2013-06-25 16:33:00,
2013-06-25 09:38:00,57.9,0.0,29.74,WSW,238,0.0,0.0,0,0.01,,RA,0.36,VWS V13.01,2013-06-25 16:38:00,
2013-06-25 09:43:00,58.0,0.0,29.74,WSW,238,0.0,0.0,0,0.02,,-RA,0.38,VWS V13.01,2013-06-25 16:43:00,
2013-06-25 09:48:00,58.1,0.0,29.74,WSW,238,0.0,0.0,0,0.05,,-RA,0.41,VWS V13.01,2013-06-25 16:48:00,
2013-06-25 09:53:00,58.0,0.0,29.75,WSW,238,0.0,1.0,0,0.07,,-RA,0.43,VWS V13.01,2013-06-25 16:53:00,
2013-06-25 09:58:00,58.0,0.0,29.74,WSW,238,0.0,1.0,0,0.09,,-RA,0.45,VWS V13.01,2013-06-25 16:58:00,
2013-06-25 10:03:00,58.1,0.0,29.74,WSW,238,0.0,0.0,0,0.12,,-RA,0.48,VWS V13.01,2013-06-25 17:03:00,
2013-06-25 10:08:00,58.2,0.0,29.74,WSW,238,0.0,0.0,0,0.16,,-RA,0.52,VWS V13.01,2013-06-25 17:08:00,
2013-06-25 10:13:00,58.3,0.0,29.74,WSW,238,0.0,0.0,0,0.17,,-RA,0.53,VWS V13.01,2013-06-25 17:13:00,
2013-06-25 10:18:00,58.3,0.0,29.75,WSW,238,0.0,0.0,0,0.19,,-RA,0.56,VWS V13.01,2013-06-25 17:18:00,
2013-06-25 10:23:00,58.4,0.0,29.75,WSW,238,0.0,0.0,0,0.22,,-RA,0.58,VWS V13.01,2013-06-25 17:23:00,
2013-06-25 10:28:00,58.5,0.0,29.75,WSW,238,0.0,0.0,0,0.23,,-RA,0.59,VWS V13.01,2013-06-25 17:28:00,
2013-06-25 10:33:00,58.5,0.0,29.75,WSW,238,0.0,0.0,0,0.23,,OVC120,0.60,VWS V13.01,2013-06-25 17:33:00,
2013-06-25 10:39:00,58.6,0.0,29.75,WSW,238,0.0,0.0,0,0.24,,OVC120,0.60,VWS V13.01,2013-06-25 17:39:00,
2013-06-25 10:44:00,58.5,0.0,29.75,WSW,242,0.0,3.0,0,0.25,,OVC120,0.61,VWS V13.01,2013-06-25 17:44:00,
2013-06-25 10:49:00,58.6,0.0,29.75,WSW,242,0.0,1.0,0,0.24,,OVC120,0.62,VWS V13.01,2013-06-25 17:49:00,
2013-06-25 10:54:00,58.7,0.0,29.75,WSW,242,1.0,2.0,0,0.25,,OVC120,0.63,VWS V13.01,2013-06-25 17:54:00,
2013-06-25 10:59:00,58.8,0.0,29.75,WSW,242,1.0,2.0,0,0.25,,OVC120,0.63,VWS V13.01,2013-06-25 17:59:00,
2013-06-25 11:04:00,59.0,0.0,29.75,West,271,1.0,3.0,0,0.18,,OVC120,0.63,VWS V13.01,2013-06-25 18:04:00,
2013-06-25 11:09:00,59.4,0.0,29.75,South,190,2.0,3.0,0,0.18,,OVC120,0.63,VWS V13.01,2013-06-25 18:09:00,
2013-06-25 11:14:00,59.8,0.0,29.75,South,178,0.0,3.0,0,0.18,,OVC120,0.63,VWS V13.01,2013-06-25 18:14:00,
2013-06-25 11:19:00,60.1,0.0,29.75,South,178,0.0,0.0,0,0.10,,OVC120,0.63,VWS V13.01,2013-06-25 18:19:00,
2013-06-25 11:24:00,60.4,0.0,29.75,South,178,0.0,1.0,0,0.10,,OVC120,0.63,VWS V13.01,2013-06-25 18:24:00,
2013-06-25 11:29:00,60.4,0.0,29.75,South,178,0.0,0.0,0,0.10,,OVC120,0.63,VWS V13.01,2013-06-25 18:29:00,
2013-06-25 11:34:00,60.6,0.0,29.75,South,178,0.0,0.0,0,0.05,,OVC120,0.64,VWS V13.01,2013-06-25 18:34:00,
2013-06-25 11:39:00,60.7,0.0,29.76,South,178,0.0,0.0,0,0.05,,OVC120,0.64,VWS V13.01,2013-06-25 18:39:00,
2013-06-25 11:44:00,60.7,0.0,29.76,South,178,0.0,0.0,0,0.06,,BKN110,0.65,VWS V13.01,2013-06-25 18:44:00,
2013-06-25 11:49:00,60.6,0.0,29.76,South,178,0.0,0.0,0,0.05,,BKN110,0.66,VWS V13.01,2013-06-25 18:49:00,
2013-06-25 11:54:00,60.6,0.0,29.77,South,178,2.0,2.0,0,0.06,,BKN110,0.67,VWS V13.01,2013-06-25 18:54:00,
2013-06-25 11:59:00,60.5,0.0,29.77,ESE,121,0.0,1.0,0,0.09,,BKN110,0.70,VWS V13.01,2013-06-25 18:59:00,
2013-06-25 12:04:00,60.6,0.0,29.77,ESE,121,0.0,1.0,0,0.08,,BKN110,0.71,VWS V13.01,2013-06-25 19:04:00,
2013-06-25 12:09:00,60.7,0.0,29.77,SSW,207,0.0,2.0,0,0.09,,BKN110,0.72,VWS V13.01,2013-06-25 19:09:00,
2013-06-25 12:15:00,60.8,0.0,29.78,SSW,205,3.0,5.0,0,0.10,,BKN110,0.73,VWS V13.01,2013-06-25 19:15:00,
2013-06-25 12:20:00,60.9,0.0,29.78,SSW,212,0.0,5.0,0,0.10,,BKN110,0.73,VWS V13.01,2013-06-25 19:20:00,
2013-06-25 12:25:00,61.2,0.0,29.78,SW,217,1.0,5.0,0,0.10,,BKN110,0.73,VWS V13.01,2013-06-25 19:25:00,
2013-06-25 12:30:00,61.4,0.0,29.78,SW,215,1.0,1.0,0,0.10,,BKN110,0.73,VWS V13.01,2013-06-25 19:30:00,
2013-06-25 12:35:00,61.7,0.0,29.79,SSE,149,0.0,5.0,0,0.10,,BKN110,0.73,VWS V13.01,2013-06-25 19:35:00,
2013-06-25 12:40:00,62.1,0.0,29.79,South,171,0.0,5.0,0,0.10,,BKN110,0.73,VWS V13.01,2013-06-25 19:40:00,
2013-06-25 12:45:00,62.1,0.0,29.79,South,172,0.0,3.0,0,0.08,,OVC070,0.73,VWS V13.01,2013-06-25 19:45:00,
2013-06-25 12:50:00,62.0,0.0,29.79,SE,135,1.0,3.0,0,0.08,, +RA,0.73,VWS V13.01,2013-06-25 19:50:00,
2013-06-25 12:55:00,61.8,0.0,29.79,WSW,258,0.0,3.0,0,0.08,, +RA,0.73,VWS V13.01,2013-06-25 19:55:00,
2013-06-25 13:00:00,61.5,0.0,29.79,WNW,298,0.0,4.0,0,0.03,, +RA,0.73,VWS V13.01,2013-06-25 20:00:00,
2013-06-25 13:05:00,61.6,0.0,29.80,WSW,254,1.0,4.0,0,0.03,, +RA,0.73,VWS V13.01,2013-06-25 20:05:00,
2013-06-25 13:10:00,61.5,0.0,29.80,SW,228,0.0,4.0,0,0.03,, +RA,0.73,VWS V13.01,2013-06-25 20:10:00,
2013-06-25 13:15:00,61.6,0.0,29.80,South,188,3.0,3.0,0,0.00,, +RA,0.73,VWS V13.01,2013-06-25 20:15:00,
2013-06-25 13:20:00,61.4,0.0,29.80,ESE,121,0.0,6.0,0,0.00,, +RA,0.73,VWS V13.01,2013-06-25 20:20:00,
2013-06-25 13:21:00,61.5,0.0,29.80,ESE,121,0.0,6.0,0,0.00,, +RA,0.73,VWS V13.01,2013-06-25 20:21:00,
2013-06-25 13:26:00,61.4,0.0,29.80,SSE,149,1.0,7.0,0,0.00,, +RA,0.73,VWS V13.01,2013-06-25 20:26:00,
2013-06-25 13:31:00,61.2,0.0,29.81,South,172,2.0,7.0,0,0.00,, +RA,0.73,VWS V13.01,2013-06-25 20:31:00,
2013-06-25 13:36:00,61.2,0.0,29.80,SE,138,2.0,7.0,0,0.00,, +RA,0.73,VWS V13.01,2013-06-25 20:36:00,
2013-06-25 13:41:00,61.4,0.0,29.80,SW,235,0.0,7.0,0,0.00,,-RA,0.73,VWS V13.01,2013-06-25 20:41:00,
2013-06-25 13:46:00,61.8,0.0,29.80,ENE,74,2.0,2.0,0,0.00,,-RA,0.73,VWS V13.01,2013-06-25 20:46:00,
2013-06-25 13:51:00,61.7,0.0,29.81,SSW,196,1.0,3.0,0,0.00,,-RA,0.73,VWS V13.01,2013-06-25 20:51:00,
2013-06-25 13:57:00,61.5,0.0,29.81,SSE,167,1.0,3.0,0,0.01,,-RA,0.74,VWS V13.01,2013-06-25 20:57:00,
2013-06-25 14:02:00,61.1,0.0,29.81,SSW,197,1.0,3.0,0,0.01,,-RA,0.74,VWS V13.01,2013-06-25 21:02:00,
2013-06-25 14:07:00,60.9,0.0,29.82,East,98,0.0,3.0,0,0.01,,-RA,0.74,VWS V13.01,2013-06-25 21:07:00,
2013-06-25 14:12:00,61.7,0.0,29.82,SSE,156,0.0,5.0,0,0.01,,-RA,0.74,VWS V13.01,2013-06-25 21:12:00,
2013-06-25 14:17:00,61.6,0.0,29.82,SW,235,2.0,3.0,0,0.01,,-RA,0.74,VWS V13.01,2013-06-25 21:17:00,
2013-06-25 14:22:00,61.8,0.0,29.82,South,175,1.0,3.0,0,0.01,,-RA,0.74,VWS V13.01,2013-06-25 21:22:00,
2013-06-25 14:27:00,61.7,0.0,29.82,SSW,192,0.0,4.0,0,0.01,,-RA,0.74,VWS V13.01,2013-06-25 21:27:00,
2013-06-25 14:32:00,61.7,0.0,29.82,WNW,299,0.0,2.0,0,0.01,,-RA,0.74,VWS V13.01,2013-06-25 21:32:00,
2013-06-25 14:37:00,61.7,0.0,29.82,South,184,4.0,7.0,0,0.01,,-RA,0.74,VWS V13.01,2013-06-25 21:37:00,
2013-06-25 14:42:00,61.5,-14.5,29.82,South,180,0.0,7.0,4,0.01,,BKN075,0.74,VWS V13.01,2013-06-25 21:42:00,
2013-06-25 14:47:00,61.8,0.0,29.82,North,11,0.0,2.0,0,0.01,,BKN075,0.74,VWS V13.01,2013-06-25 21:47:00,
2013-06-25 14:52:00,61.7,17.8,29.82,East,99,1.0,6.0,18,0.01,,BKN075,0.74,VWS V13.01,2013-06-25 21:52:00,
2013-06-25 14:57:00,62.1,16.8,29.83,SSE,161,3.0,6.0,17,0.01,,BKN075,0.74,VWS V13.01,2013-06-25 21:57:00,
2013-06-25 15:02:00,62.3,29.7,29.83,South,186,3.0,5.0,29,0.00,,BKN075,0.74,VWS V13.01,2013-06-25 22:02:00,
2013-06-25 15:07:00,62.6,29.9,29.83,ESE,118,1.0,10.0,29,0.00,,BKN075,0.74,VWS V13.01,2013-06-25 22:07:00,
2013-06-25 15:12:00,62.8,29.2,29.83,SSE,157,2.0,10.0,28,0.00,,BKN075,0.74,VWS V13.01,2013-06-25 22:12:00,
2013-06-25 15:18:00,63.0,0.8,29.83,North,349,0.0,3.0,8,0.00,,BKN075,0.74,VWS V13.01,2013-06-25 22:18:00,
2013-06-25 15:23:00,63.1,-8.9,29.83,SE,126,1.0,3.0,5,0.00,,BKN075,0.74,VWS V13.01,2013-06-25 22:23:00,
2013-06-25 15:28:00,63.2,0.0,29.83,NW,319,0.0,3.0,0,0.00,,BKN075,0.74,VWS V13.01,2013-06-25 22:28:00,
2013-06-25 15:33:00,63.2,24.8,29.83,South,171,0.0,3.0,23,0.00,,BKN075,0.74,VWS V13.01,2013-06-25 22:33:00,
2013-06-25 15:38:00,63.2,42.1,29.83,SW,221,2.0,6.0,46,0.00,,BKN075,0.74,VWS V13.01,2013-06-25 22:38:00,
2013-06-25 15:43:00,63.2,33.6,29.83,SSW,202,2.0,7.0,33,0.00,,BKN080,0.74,VWS V13.01,2013-06-25 22:43:00,
2013-06-25 15:48:00,63.1,35.7,29.83,ENE,63,7.0,9.0,36,0.00,,BKN080,0.74,VWS V13.01,2013-06-25 22:48:00,
2013-06-25 15:53:00,63.1,35.0,29.83,South,180,0.0,9.0,35,0.00,,BKN080,0.74,VWS V13.01,2013-06-25 22:53:00,
2013-06-25 15:58:00,63.0,45.1,29.83,SW,236,5.0,9.0,52,0.00,,BKN080,0.74,VWS V13.01,2013-06-25 22:58:00,
2013-06-25 16:04:00,63.3,31.4,29.84,NE,45,5.0,6.0,30,0.00,,BKN080,0.74,VWS V13.01,2013-06-25 23:04:00,
2013-06-25 16:09:00,63.4,42.8,29.83,SE,138,3.0,10.0,47,0.00,,BKN080,0.74,VWS V13.01,2013-06-25 23:09:00,
2013-06-25 16:14:00,63.8,48.8,29.83,West,267,0.0,10.0,58,0.00,,BKN080,0.74,VWS V13.01,2013-06-25 23:14:00,
2013-06-25 16:19:00,64.1,44.0,29.84,SSW,192,0.0,4.0,48,0.00,,BKN080,0.74,VWS V13.01,2013-06-25 23:19:00,
2013-06-25 16:24:00,64.1,44.6,29.84,SSW,213,5.0,5.0,49,0.00,,BKN080,0.74,VWS V13.01,2013-06-25 23:24:00,
2013-06-25 16:29:00,63.8,43.8,29.83,South,178,3.0,5.0,48,0.00,,BKN080,0.74,VWS V13.01,2013-06-25 23:29:00,
2013-06-25 16:34:00,63.5,44.5,29.83,SW,229,0.0,7.0,50,0.00,,BKN080,0.74,VWS V13.01,2013-06-25 23:34:00,
2013-06-25 16:39:00,63.4,47.9,29.83,SW,229,0.0,7.0,57,0.00,,BKN080,0.74,VWS V13.01,2013-06-25 23:39:00,
2013-06-25 16:44:00,63.7,50.9,29.83,SW,222,1.0,3.0,63,0.00,,BKN070,0.74,VWS V13.01,2013-06-25 23:44:00,
2013-06-25 16:49:00,63.9,50.6,29.83,SSE,164,0.0,6.0,62,0.00,,BKN070,0.74,VWS V13.01,2013-06-25 23:49:00,
2013-06-25 16:54:00,63.9,51.5,29.84,South,171,3.0,6.0,64,0.00,,BKN070,0.74,VWS V13.01,2013-06-25 23:54:00,
2013-06-25 16:59:00,63.7,49.1,29.84,East,90,2.0,5.0,59,0.00,,BKN070,0.74,VWS V13.01,2013-06-25 23:59:00,
2013-06-25 17:04:00,63.5,50.7,29.84,NE,40,0.0,5.0,63,0.00,,BKN070,0.74,VWS V13.01,2013-06-26 00:04:00,
2013-06-25 17:09:00,63.5,35.4,29.84,SSW,200,0.0,5.0,35,0.00,,BKN070,0.74,VWS V13.01,2013-06-26 00:09:00,
2013-06-25 17:14:00,63.2,41.0,29.83,South,181,1.0,1.0,44,0.00,,BKN095,0.74,VWS V13.01,2013-06-26 00:14:00,
2013-06-25 17:15:00,63.2,35.1,29.83,South,175,1.0,2.0,35,0.00,,BKN095,0.74,VWS V13.01,2013-06-26 00:15:00,
2013-06-25 17:20:00,63.0,48.5,29.84,South,188,0.0,4.0,59,0.00,,BKN095,0.74,VWS V13.01,2013-06-26 00:20:00,
2013-06-25 17:25:00,63.1,40.3,29.84,SE,137,0.0,4.0,43,0.00,,BKN095,0.74,VWS V13.01,2013-06-26 00:25:00,
2013-06-25 17:30:00,62.7,48.6,29.84,SSW,200,3.0,5.0,60,0.00,,BKN095,0.74,VWS V13.01,2013-06-26 00:30:00,
2013-06-25 17:35:00,62.7,38.0,29.84,ENE,66,0.0,5.0,40,0.00,,BKN095,0.74,VWS V13.01,2013-06-26 00:35:00,
2013-06-25 17:41:00,62.6,18.5,29.84,ENE,66,0.0,5.0,18,0.00,,BKN095,0.74,VWS V13.01,2013-06-26 00:41:00,
2013-06-25 17:46:00,62.2,10.8,29.84,ENE,66,0.0,1.0,13,0.00,,BKN095,0.74,VWS V13.01,2013-06-26 00:46:00,
2013-06-25 17:51:00,61.9,4.8,29.84,WSW,252,0.0,1.0,10,0.00,,BKN095,0.74,VWS V13.01,2013-06-26 00:51:00,
2013-06-25 17:56:00,61.4,-27.8,29.85,WSW,252,0.0,1.0,2,0.00,,BKN095,0.74,VWS V13.01,2013-06-26 00:56:00,
2013-06-25 18:01:00,61.1,0.0,29.85,WSW,252,0.0,0.0,0,0.01,,BKN095,0.75,VWS V13.01,2013-06-26 01:01:00,
2013-06-25 18:06:00,60.8,0.0,29.85,WSW,252,0.0,0.0,0,0.01,,BKN095,0.75,VWS V13.01,2013-06-26 01:06:00,
2013-06-25 18:11:00,60.6,0.0,29.85,WSW,252,0.0,0.0,0,0.01,,BKN095,0.75,VWS V13.01,2013-06-26 01:11:00,
2013-06-25 18:16:00,60.5,0.0,29.85,WSW,252,0.0,0.0,0,0.01,,BKN095,0.75,VWS V13.01,2013-06-26 01:16:00,
2013-06-25 18:21:00,60.5,0.0,29.85,WSW,252,0.0,0.0,0,0.01,,BKN095,0.75,VWS V13.01,2013-06-26 01:21:00,
2013-06-25 18:26:00,60.4,0.0,29.85,WSW,252,0.0,0.0,0,0.01,,BKN095,0.75,VWS V13.01,2013-06-26 01:26:00,
2013-06-25 18:31:00,60.1,0.0,29.85,WSW,252,0.0,1.0,0,0.01,,BKN095,0.75,VWS V13.01,2013-06-26 01:31:00,
2013-06-25 18:36:00,60.0,0.0,29.85,WSW,252,0.0,1.0,0,0.01,,BKN095,0.75,VWS V13.01,2013-06-26 01:36:00,
2013-06-25 18:41:00,59.9,0.0,29.85,WSW,252,0.0,1.0,0,0.02,,OVC100,0.76,VWS V13.01,2013-06-26 01:41:00,
2013-06-25 18:46:00,60.0,0.0,29.85,WSW,252,0.0,0.0,0,0.02,,OVC100,0.76,VWS V13.01,2013-06-26 01:46:00,
2013-06-25 18:51:00,59.9,0.0,29.85,WSW,252,0.0,0.0,0,0.02,,OVC100,0.76,VWS V13.01,2013-06-26 01:51:00,
2013-06-25 18:53:00,59.9,0.0,29.85,WSW,252,0.0,0.0,0,0.02,,OVC100,0.76,VWS V13.01,2013-06-26 01:53:00,
2013-06-25 18:58:00,59.9,0.0,29.85,WSW,252,0.0,0.0,0,0.02,,OVC100,0.76,VWS V13.01,2013-06-26 01:58:00,
2013-06-25 19:03:00,59.8,0.0,29.85,WSW,252,0.0,0.0,0,0.02,,OVC100,0.76,VWS V13.01,2013-06-26 02:03:00,
2013-06-25 19:08:00,59.9,0.0,29.86,WSW,252,0.0,0.0,0,0.02,,OVC100,0.76,VWS V13.01,2013-06-26 02:08:00,
2013-06-25 19:13:00,59.9,0.0,29.86,WSW,252,0.0,0.0,0,0.02,,OVC100,0.76,VWS V13.01,2013-06-26 02:13:00,
2013-06-25 19:18:00,59.9,0.0,29.86,WSW,252,0.0,0.0,0,0.01,,OVC100,0.76,VWS V13.01,2013-06-26 02:18:00,
2013-06-25 19:23:00,59.9,0.0,29.86,WSW,252,0.0,0.0,0,0.01,,OVC100,0.76,VWS V13.01,2013-06-26 02:23:00,
2013-06-25 19:28:00,59.9,0.0,29.86,WSW,252,0.0,0.0,0,0.01,,OVC100,0.76,VWS V13.01,2013-06-26 02:28:00,
2013-06-25 19:33:00,59.9,0.0,29.86,WSW,252,0.0,0.0,0,0.01,,OVC100,0.76,VWS V13.01,2013-06-26 02:33:00,
2013-06-25 19:38:00,59.8,0.0,29.86,WSW,252,0.0,0.0,0,0.01,,OVC100,0.76,VWS V13.01,2013-06-26 02:38:00,
2013-06-25 19:43:00,59.8,0.0,29.86,WSW,252,0.0,0.0,0,0.01,,BKN095,0.76,VWS V13.01,2013-06-26 02:43:00,
2013-06-25 19:49:00,59.8,0.0,29.86,WSW,252,0.0,0.0,0,0.00,,BKN095,0.76,VWS V13.01,2013-06-26 02:49:00,
2013-06-25 19:54:00,59.8,0.0,29.86,WSW,252,0.0,0.0,0,0.00,,BKN095,0.76,VWS V13.01,2013-06-26 02:54:00,
2013-06-25 19:59:00,59.7,0.0,29.86,WSW,252,0.0,0.0,0,0.00,,BKN095,0.76,VWS V13.01,2013-06-26 02:59:00,
2013-06-25 20:04:00,59.7,0.0,29.86,WSW,252,0.0,0.0,0,0.01,,BKN095,0.77,VWS V13.01,2013-06-26 03:04:00,
2013-06-25 20:09:00,59.6,0.0,29.86,WSW,252,0.0,0.0,0,0.01,,BKN095,0.77,VWS V13.01,2013-06-26 03:09:00,
2013-06-25 20:14:00,59.6,0.0,29.86,WSW,252,0.0,0.0,0,0.01,,BKN095,0.77,VWS V13.01,2013-06-26 03:14:00,
2013-06-25 20:19:00,59.5,0.0,29.85,WSW,252,0.0,0.0,0,0.01,,BKN095,0.77,VWS V13.01,2013-06-26 03:19:00,
2013-06-25 20:24:00,59.4,0.0,29.85,WSW,252,0.0,0.0,0,0.01,,BKN095,0.77,VWS V13.01,2013-06-26 03:24:00,
2013-06-25 20:29:00,59.4,0.0,29.85,WSW,252,0.0,0.0,0,0.01,,BKN095,0.77,VWS V13.01,2013-06-26 03:29:00,
2013-06-25 20:34:00,59.3,0.0,29.85,WSW,252,0.0,0.0,0,0.01,,BKN095,0.77,VWS V13.01,2013-06-26 03:34:00,
2013-06-25 20:39:00,59.3,0.0,29.85,WSW,252,0.0,0.0,0,0.01,,BKN095,0.77,VWS V13.01,2013-06-26 03:39:00,
2013-06-25 20:44:00,59.2,0.0,29.85,WSW,252,0.0,0.0,0,0.01,,-RA,0.77,VWS V13.01,2013-06-26 03:44:00,
2013-06-25 20:49:00,59.1,0.0,29.86,WSW,252,0.0,0.0,0,0.01,,-RA,0.77,VWS V13.01,2013-06-26 03:49:00,
2013-06-25 20:54:00,59.0,0.0,29.86,WSW,252,0.0,0.0,0,0.01,,-RA,0.77,VWS V13.01,2013-06-26 03:54:00,
2013-06-25 20:59:00,59.0,0.0,29.85,WSW,252,0.0,0.0,0,0.01,,-RA,0.77,VWS V13.01,2013-06-26 03:59:00,
2013-06-25 21:01:00,59.0,0.0,29.85,WSW,252,0.0,0.0,0,0.01,,-RA,0.77,VWS V13.01,2013-06-26 04:01:00,
2013-06-25 21:02:00,58.9,0.0,29.85,WSW,252,0.0,0.0,0,0.01,,-RA,0.77,VWS V13.01,2013-06-26 04:02:00,
2013-06-25 21:07:00,58.9,0.0,29.85,WSW,252,0.0,0.0,0,0.01,,-RA,0.77,VWS V13.01,2013-06-26 04:07:00,
2013-06-25 21:12:00,58.8,0.0,29.85,WSW,252,0.0,0.0,0,0.01,,-RA,0.77,VWS V13.01,2013-06-26 04:12:00,
2013-06-25 21:17:00,58.7,0.0,29.85,WSW,252,0.0,0.0,0,0.00,,-RA,0.77,VWS V13.01,2013-06-26 04:17:00,
2013-06-25 21:22:00,58.6,0.0,29.86,WSW,252,0.0,0.0,0,0.00,,-RA,0.77,VWS V13.01,2013-06-26 04:22:00,
2013-06-25 21:27:00,58.6,0.0,29.86,WSW,252,0.0,0.0,0,0.00,,-RA,0.77,VWS V13.01,2013-06-26 04:27:00,
2013-06-25 21:32:00,58.6,0.0,29.86,WSW,252,0.0,0.0,0,0.00,,-RA,0.77,VWS V13.01,2013-06-26 04:32:00,
2013-06-25 21:37:00,58.5,0.0,29.86,WSW,252,0.0,0.0,0,0.00,,-RA,0.77,VWS V13.01,2013-06-26 04:37:00,
2013-06-25 21:42:00,58.5,0.0,29.86,WSW,252,0.0,0.0,0,0.00,,OVC080,0.77,VWS V13.01,2013-06-26 04:42:00,
2013-06-25 21:47:00,58.4,0.0,29.86,WSW,250,0.0,2.0,0,0.00,,OVC080,0.77,VWS V13.01,2013-06-26 04:47:00,
2013-06-25 21:52:00,58.3,0.0,29.86,WSW,250,0.0,2.0,0,0.00,,OVC080,0.77,VWS V13.01,2013-06-26 04:52:00,
2013-06-25 21:57:00,58.3,0.0,29.87,WSW,251,0.0,2.0,0,0.00,,OVC080,0.77,VWS V13.01,2013-06-26 04:57:00,
2013-06-25 22:02:00,58.2,0.0,29.87,WSW,250,0.0,0.0,0,0.00,,OVC080,0.77,VWS V13.01,2013-06-26 05:02:00,
2013-06-25 22:08:00,58.2,0.0,29.87,WSW,250,0.0,0.0,0,0.00,,OVC080,0.77,VWS V13.01,2013-06-26 05:08:00,
2013-06-25 22:13:00,58.2,0.0,29.87,WSW,250,0.0,1.0,0,0.00,,OVC080,0.77,VWS V13.01,2013-06-26 05:13:00,
2013-06-25 22:18:00,58.2,0.0,29.88,WSW,250,0.0,0.0,0,0.01,,OVC080,0.78,VWS V13.01,2013-06-26 05:18:00,
2013-06-25 22:23:00,58.2,0.0,29.88,WSW,250,0.0,0.0,0,0.02,,OVC080,0.79,VWS V13.01,2013-06-26 05:23:00,
2013-06-25 22:28:00,58.2,0.0,29.88,WSW,250,0.0,0.0,0,0.03,,OVC080,0.80,VWS V13.01,2013-06-26 05:28:00,
2013-06-25 22:33:00,58.1,0.0,29.88,WSW,250,0.0,0.0,0,0.03,,OVC080,0.80,VWS V13.01,2013-06-26 05:33:00,
2013-06-25 22:38:00,58.1,0.0,29.87,WSW,250,0.0,0.0,0,0.03,,OVC080,0.80,VWS V13.01,2013-06-26 05:38:00,
2013-06-25 22:43:00,58.1,0.0,29.87,WSW,250,0.0,0.0,0,0.03,,OVC080,0.80,VWS V13.01,2013-06-26 05:43:00,
2013-06-25 22:48:00,58.1,0.0,29.87,WSW,250,0.0,0.0,0,0.03,,OVC080,0.80,VWS V13.01,2013-06-26 05:48:00,
2013-06-25 22:54:00,58.1,0.0,29.87,WSW,250,0.0,0.0,0,0.03,,OVC080,0.80,VWS V13.01,2013-06-26 05:54:00,
2013-06-25 22:59:00,58.1,0.0,29.87,WSW,250,0.0,0.0,0,0.03,,OVC080,0.80,VWS V13.01,2013-06-26 05:59:00,
2013-06-25 23:04:00,58.0,0.0,29.87,WSW,250,0.0,0.0,0,0.03,,OVC080,0.80,VWS V13.01,2013-06-26 06:04:00,
2013-06-25 23:09:00,58.0,0.0,29.87,WSW,250,0.0,0.0,0,0.03,,OVC080,0.80,VWS V13.01,2013-06-26 06:09:00,
2013-06-25 23:14:00,58.0,0.0,29.87,WSW,250,0.0,0.0,0,0.03,,OVC080,0.80,VWS V13.01,2013-06-26 06:14:00,
2013-06-25 23:19:00,58.0,0.0,29.87,WSW,250,0.0,0.0,0,0.04,,OVC080,0.81,VWS V13.01,2013-06-26 06:19:00,
2013-06-25 23:24:00,58.0,0.0,29.88,WSW,250,0.0,0.0,0,0.04,,OVC080,0.81,VWS V13.01,2013-06-26 06:24:00,
2013-06-25 23:29:00,58.0,0.0,29.87,WSW,250,0.0,0.0,0,0.04,,OVC080,0.81,VWS V13.01,2013-06-26 06:29:00,
2013-06-25 23:34:00,58.0,0.0,29.88,WSW,250,0.0,0.0,0,0.01,,OVC080,0.82,VWS V13.01,2013-06-26 06:34:00,
2013-06-25 23:39:00,58.0,0.0,29.87,WSW,250,0.0,0.0,0,0.02,,OVC049,0.82,VWS V13.01,2013-06-26 06:39:00,
2013-06-25 23:45:00,57.9,0.0,29.88,WSW,250,0.0,1.0,0,0.02,,OVC049,0.82,VWS V13.01,2013-06-26 06:45:00,
2013-06-25 23:50:00,57.9,0.0,29.88,WSW,250,0.0,1.0,0,0.02,,OVC049,0.82,VWS V13.01,2013-06-26 06:50:00,
2013-06-25 23:55:00,57.9,0.0,29.88,WSW,251,0.0,1.0,0,0.02,,OVC049,0.82,VWS V13.01,2013-06-26 06:55:00,